View from above orbital plane
|
View from above satellite
|
Ground track
|
The orbit data is extracted from the following two-line orbital elements,
1 85U 61004C 21021.23240731 .00002340 00000-0 49390-3 0 9999
2 85 38.7761 349.3146 0394427 152.1099 210.1400 14.21561310962068
Epoch (UTC): | 21 January 2021 05:34:39 |
Eccentricity: | 0.0394427 |
inclination: | 38.7761° |
perigee height: | 536 km |
apogee height: | 1104 km |
right ascension of ascending node: | 349.3146° |
argument of perigee: | 152.1099° |
revolutions per day: | 14.21561310 |
mean anomaly at epoch: | 210.1400° |
orbit number at epoch: | 96206 |
The dashed part of the orbit path shows where the satellite is in the earth's shadow,
|
|